EW1587 Weather Reports


Display with metric or nautical units.
time (UTC)temp
F
wind
direction
speed
MPH
gust
MPH
rain 1hr
in
rain 24hr
in
rain mn
in
humidity
%
barometer
mb
20260906021039 74 105 0.0 1.0 0.00 0.00 0.00 84 1016.6
20260906020539 73 94 0.0 1.0 0.00 0.00 0.00 84 1016.5
20260906020039 73 136 0.0 1.0 0.00 0.00 0.00 84 1016.4
20260906015538 73 155 0.0 0.0 0.00 0.00 0.00 84 1016.2
20260906015039 73 156 0.0 1.0 0.00 0.00 0.00 83 1016.2
20260906014539 74 158 0.0 3.0 0.00 0.00 0.00 83 1016.0
20260906014043 74 280 0.0 2.0 0.00 0.00 0.00 82 1015.7
20260906013539 74 242 0.0 0.0 0.00 0.00 0.00 80 1015.6
20260906013038 75 243 0.0 0.0 0.00 0.00 0.00 80 1015.4
20260906012538 75 102 0.0 0.0 0.00 0.00 0.00 79 1015.2
20260906011039 76 100 0.0 2.0 0.00 0.00 0.00 78 1014.6
20260906010535 76 117 0.0 3.0 0.00 0.00 0.00 77 1014.6
20260906010046 77 109 0.0 3.0 0.00 0.00 0.00 77 1014.4
20260906005535 77 84 0.0 1.0 0.00 0.00 0.00 76 1014.3
20260906005034 77 108 0.0 1.0 0.00 0.00 0.00 76 1014.3
20260906004535 78 86 0.0 2.0 0.00 0.00 0.00 75 1014.2
20260906004033 78 115 0.0 2.0 0.00 0.00 0.00 74 1014.2
20260906003533 79 115 0.0 2.0 0.00 0.00 0.00 73 1014.1
20260906003033 79 100 0.0 3.0 0.00 0.00 0.00 72 1014.2
20260906002532 80 122 0.0 3.0 0.00 0.00 0.00 70 1014.1
20260906002033 81 117 0.0 3.0 0.00 0.00 0.00 69 1014.2
20260906001536 82 108 0.0 2.0 0.00 0.00 0.00 68 1014.2
20260906000030 82 72 0.0 3.0 0.00 0.00 0.00 70 1014.2
20260905235529 82 74 0.0 4.0 0.00 0.00 0.00 70 1014.1
20260905235031 82 103 0.0 4.0 0.00 0.00 0.00 70 1014.0
20260905234529 81 90 0.0 4.0 0.00 0.00 0.00 71 1014.0
20260905234029 81 105 1.0 6.0 0.00 0.00 0.00 70 1014.1
20260905233528 81 111 2.0 7.0 0.00 0.00 0.00 70 1014.0
20260905233027 81 103 3.0 7.0 0.00 0.00 0.00 69 1014.0
20260905232528 82 110 2.0 5.0 0.00 0.00 0.00 71 1013.9
20260905232028 81 92 2.0 6.0 0.00 0.00 0.00 70 1014.0
20260905231528 81 105 2.0 6.0 0.00 0.00 0.00 70 1014.1
20260905231028 81 90 4.0 8.0 0.00 0.00 0.00 69 1014.1
20260905230528 81 109 4.0 8.0 0.00 0.00 0.00 69 1014.1
20260905230032 82 110 4.0 8.0 0.00 0.00 0.00 68 1014.1
20260905225530 82 109 4.0 8.0 0.00 0.00 0.00 69 1014.1
20260905225025 81 22 5.0 8.0 0.00 0.00 0.00 68 1014.1
20260905224525 81 103 5.0 9.0 0.00 0.00 0.00 69 1014.1
20260905224024 81 104 6.0 10.0 0.00 0.00 0.00 68 1014.1
20260905223525 82 89 6.0 10.0 0.00 0.00 0.00 69 1013.9
20260905223024 82 86 6.0 10.0 0.00 0.00 0.00 68 1014.0
20260905222523 82 90 6.0 9.0 0.00 0.00 0.00 69 1014.0
20260905222024 82 75 5.0 8.0 0.00 0.00 0.00 69 1013.9
20260905221523 82 121 4.0 8.0 0.00 0.00 0.00 69 1014.0
20260905221022 82 78 4.0 8.0 0.00 0.00 0.00 68 1014.1
20260905220521 82 101 5.0 8.0 0.00 0.00 0.00 67 1014.1
20260905220023 82 139 2.0 7.0 0.00 0.00 0.00 68 1014.1
20260905215519 81 91 4.0 13.0 0.00 0.00 0.00 69 1013.9
20260905215019 81 91 7.0 13.0 0.00 0.00 0.00 68 1013.7
20260905214518 81 124 5.0 11.0 0.00 0.00 0.00 69 1013.7
20260905214118 81 121 6.0 11.0 0.00 0.00 0.00 67 1013.7
20260905213517 81 110 4.0 11.0 0.00 0.00 0.00 69 1013.7
20260905213116 81 82 6.0 11.0 0.00 0.00 0.00 69 1013.5
20260905212515 81 124 7.0 14.0 0.00 0.00 0.00 69 1013.6
20260905212013 81 115 7.0 14.0 0.00 0.00 0.00 70 1013.8
20260905211529 81 77 7.0 12.0 0.00 0.00 0.00 68 1014.0
20260905211013 81 101 6.0 11.0 0.00 0.00 0.00 68 1014.0
20260905210511 81 94 5.0 11.0 0.00 0.00 0.00 70 1014.0
20260905210010 81 111 6.0 11.0 0.00 0.00 0.00 70 1014.0
20260905205509 80 127 7.0 12.0 0.00 0.00 0.00 70 1014.2
20260905205008 80 108 5.0 12.0 0.00 0.00 0.00 73 1014.4
20260905204507 80 105 6.0 12.0 0.00 0.00 0.00 72 1014.5
20260905204005 79 120 7.0 12.0 0.00 0.00 0.00 74 1014.6
20260905203505 79 111 5.0 10.0 0.00 0.00 0.00 75 1014.7
20260905203004 79 77 6.0 9.0 0.00 0.00 0.00 74 1014.8
20260905202503 79 47 6.0 13.0 0.00 0.00 0.00 76 1014.9
20260905202002 79 79 7.0 13.0 0.00 0.00 0.00 76 1015.0
20260905201501 79 82 6.0 11.0 0.00 0.00 0.00 77 1015.1
20260905201100 79 117 6.0 10.0 0.00 0.00 0.00 78 1015.2
20260905200559 78 79 6.0 10.0 0.00 0.00 0.00 79 1015.2
20260905200118 79 124 4.0 9.0 0.00 0.00 0.00 79 1015.4
20260905195556 78 121 4.0 9.0 0.00 0.00 0.00 81 1015.3
20260905194554 77 101 5.0 10.0 0.00 0.00 0.00 81 1015.6
20260905194055 77 106 5.0 9.0 0.00 0.00 0.00 82 1015.7
20260905193551 77 160 4.0 9.0 0.00 0.00 0.00 83 1015.8
20260905193052 76 94 2.0 8.0 0.00 0.00 0.00 85 1015.9
20260905192550 76 77 4.0 8.0 0.00 0.00 0.00 85 1016.0
20260905192049 76 86 4.0 9.0 0.00 0.00 0.00 84 1015.8
20260905191549 76 105 5.0 9.0 0.00 0.00 0.00 85 1015.7
20260905191050 76 65 4.0 11.0 0.00 0.00 0.00 86 1015.7
20260905190647 75 124 5.0 11.0 0.00 0.00 0.00 86 1015.7
20260905190045 75 103 6.0 9.0 0.00 0.00 0.00 87 1015.8
20260905185543 74 77 4.0 10.0 0.00 0.00 0.00 88 1015.9
20260905185043 73 96 3.0 10.0 0.00 0.00 0.00 88 1016.0
20260905184543 73 121 6.0 10.0 0.00 0.00 0.00 87 1016.0
20260905184046 73 99 3.0 8.0 0.00 0.00 0.00 88 1016.2
20260905183542 73 101 4.0 8.0 0.00 0.00 0.00 86 1016.2
20260905183045 73 67 0.0 6.0 0.00 0.00 0.00 89 1016.2
20260905182541 73 120 2.0 4.0 0.00 0.00 0.00 87 1016.4
20260905182039 73 57 0.0 3.0 0.00 0.00 0.00 88 1016.5
20260905181538 73 77 0.0 4.0 0.00 0.00 0.00 88 1016.6
20260905181038 72 77 1.0 4.0 0.00 0.00 0.00 88 1016.8
20260905180538 72 124 0.0 4.0 0.00 0.00 0.00 88 1016.9
20260905180036 73 326 0.0 2.0 0.00 0.00 0.00 88 1017.1
20260905175536 72 243 0.0 4.0 0.00 0.00 0.00 89 1017.0
20260905175038 72 174 0.0 4.0 0.00 0.00 0.00 89 1017.0
20260905174536 72 85 0.0 5.0 0.00 0.00 0.00 88 1017.0
20260905174035 72 115 0.0 6.0 0.00 0.00 0.00 89 1017.1
20260905173539 72 181 1.0 6.0 0.00 0.00 0.00 88 1017.2
20260905173053 72 161 1.0 5.0 0.00 0.00 0.00 88 1017.3
20260905172534 72 153 1.0 7.0 0.00 0.00 0.00 89 1017.4
20260905172033 72 204 2.0 7.0 0.00 0.00 0.00 91 1017.3
20260905171532 71 173 0.0 7.0 0.00 0.00 0.00 93 1017.1
20260905171033 70 102 1.0 7.0 0.00 0.00 0.00 94 1017.1
20260905170528 69 184 0.0 8.0 0.00 0.00 0.00 95 1017.2
20260905170027 69 86 3.0 9.0 0.00 0.00 0.00 95 1017.2
20260905165525 68 111 0.0 9.0 0.00 0.00 0.00 97 1017.2
20260905165024 68 84 0.0 9.0 0.00 0.00 0.00 97 1017.2
20260905164625 68 122 3.0 10.0 0.00 0.00 0.00 97 1017.1
20260905164027 67 109 5.0 8.0 0.00 0.00 0.00 97 1016.9
20260905163521 67 217 2.0 6.0 0.00 0.00 0.00 98 1017.1
20260905163021 67 127 1.0 7.0 0.00 0.00 0.00 99 1017.3
20260905162520 66 101 2.0 5.0 0.00 0.00 0.00 99 1017.2
20260905162022 66 101 2.0 5.0 0.00 0.00 0.00 99 1017.4
20260905161517 66 115 2.0 5.0 0.00 0.00 0.00 100 1017.4
20260905161017 66 87 0.0 4.0 0.00 0.00 0.00 100 1017.3
20260905160515 66 89 0.0 5.0 0.00 0.00 0.00 100 1017.3
20260905160015 65 86 1.0 6.0 0.00 0.00 0.00 100 1017.1
20260905155513 65 69 3.0 6.0 0.00 0.00 0.00 100 1017.2
20260905155014 65 107 3.0 8.0 0.00 0.00 0.00 100 1017.1
20260905154514 65 89 6.0 9.0 0.00 0.00 0.00 100 1016.8
20260905154015 64 94 6.0 9.0 0.00 0.00 0.00 100 1016.9
20260905153512 64 11 6.0 9.0 0.00 0.00 0.00 100 1017.0
20260905153010 64 72 4.0 8.0 0.00 0.00 0.00 100 1017.2
20260905152513 64 82 3.0 8.0 0.00 0.00 0.00 100 1017.3
20260905152009 64 71 3.0 6.0 0.00 0.00 0.00 100 1017.3
20260905151509 64 65 1.0 6.0 0.00 0.00 0.00 100 1017.3
20260905151012 64 70 3.0 7.0 0.00 0.00 0.00 100 1017.3
20260905150507 64 113 2.0 7.0 0.00 0.00 0.00 100 1017.2
20260905150006 64 94 3.0 7.0 0.00 0.00 0.00 100 1017.0
20260905145508 63 65 2.0 5.0 0.00 0.00 0.00 100 1017.0
20260905145007 63 66 1.0 3.0 0.00 0.00 0.00 100 1017.2
20260905144506 63 77 0.0 3.0 0.00 0.00 0.00 100 1017.4
20260905144007 63 73 0.0 3.0 0.00 0.00 0.00 100 1017.5
20260905143506 63 79 0.0 3.0 0.00 0.00 0.00 100 1017.4
20260905143004 63 65 0.0 5.0 0.00 0.00 0.00 100 1017.1
20260905142502 63 103 1.0 6.0 0.00 0.00 0.00 100 1016.8
20260905142003 63 79 1.0 7.0 0.00 0.00 0.00 100 1016.7
20260905141506 63 48 3.0 6.0 0.00 0.00 0.00 100 1016.7
20260905141002 63 98 3.0 7.0 0.00 0.00 0.00 100 1016.6
20260905140504 63 73 4.0 7.0 0.00 0.00 0.00 100 1016.6
20260905140000 63 88 3.0 8.0 0.00 0.00 0.00 100 1016.6
20260905135502 62 58 4.0 8.0 0.00 0.00 0.00 100 1016.6
20260905135100 62 92 4.0 7.0 0.00 0.00 0.00 100 1016.5
20260905135003 62 110 4.0 7.0 0.00 0.00 0.00 100 1016.6
20260905134603 62 84 4.0 7.0 0.00 0.00 0.00 100 1016.5
20260905134059 62 73 4.0 6.0 0.00 0.00 0.00 100 1016.7
20260905133601 62 64 3.0 5.0 0.00 0.00 0.00 100 1016.6
20260905133059 62 69 3.0 5.0 0.00 0.00 0.00 100 1016.7
20260905132557 62 86 2.0 4.0 0.00 0.00 0.00 100 1016.8
20260905132057 62 96 1.0 4.0 0.00 0.00 0.00 100 1016.8
20260905131603 62 81 1.0 4.0 0.00 0.00 0.00 100 1016.8
20260905131055 62 57 1.0 4.0 0.00 0.00 0.00 100 1016.8
20260905130611 62 96 1.0 4.0 0.00 0.00 0.00 100 1016.7
20260905130055 62 89 1.0 4.0 0.00 0.00 0.00 100 1016.6
20260905125552 62 91 1.0 3.0 0.00 0.00 0.00 100 1016.5
20260905125047 62 103 1.0 5.0 0.00 0.00 0.00 100 1016.4
20260905124544 62 94 2.0 5.0 0.00 0.00 0.00 100 1016.1
20260905124510 62 128 2.0 5.0 0.00 0.00 0.00 100 1016.1
20260905124043 62 86 2.0 6.0 0.00 0.00 0.00 100 1015.9
20260905123539 62 92 3.0 7.0 0.00 0.00 0.00 100 1015.6
20260905123036 61 94 4.0 7.0 0.00 0.00 0.00 100 1015.5
20260905122540 61 93 3.0 7.0 0.00 0.00 0.00 100 1015.5
20260905122051 61 111 4.0 5.0 0.00 0.00 0.00 100 1015.4
20260905121533 61 106 2.0 5.0 0.00 0.00 0.00 100 1015.6
20260905121044 61 100 2.0 6.0 0.00 0.00 0.00 100 1015.6
20260905120557 61 113 3.0 6.0 0.00 0.00 0.00 100 1015.6
20260905120030 61 105 2.0 6.0 0.00 0.00 0.00 100 1015.3
20260905115530 61 92 2.0 6.0 0.00 0.00 0.00 100 1015.5
20260905115032 62 156 1.0 4.0 0.00 0.00 0.00 100 1015.6
20260905114532 62 91 3.0 5.0 0.00 0.00 0.00 100 1015.4
20260905114034 62 81 0.0 6.0 0.00 0.00 0.00 100 1015.7
20260905113528 62 72 3.0 7.0 0.00 0.00 0.00 100 1015.4
20260905113028 62 102 4.0 8.0 0.00 0.00 0.00 100 1015.3
20260905112529 62 101 4.0 8.0 0.00 0.00 0.00 100 1015.2
20260905112029 62 103 4.0 7.0 0.00 0.00 0.00 100 1015.2
20260905111528 62 79 3.0 7.0 0.00 0.00 0.00 100 1015.3
20260905111027 61 113 4.0 7.0 0.00 0.00 0.00 100 1015.3
20260905110527 62 79 3.0 6.0 0.00 0.00 0.00 100 1015.3
20260905110025 62 83 2.0 7.0 0.00 0.00 0.00 100 1015.3
20260905105525 62 94 1.0 7.0 0.00 0.00 0.00 100 1015.3
20260905105025 62 99 3.0 7.0 0.00 0.00 0.00 100 1015.2
20260905104526 62 88 1.0 4.0 0.00 0.00 0.00 100 1015.1
20260905104026 62 82 3.0 7.0 0.00 0.00 0.00 100 1015.1
20260905103523 62 101 3.0 7.0 0.00 0.00 0.00 100 1014.8
20260905103023 62 90 3.0 6.0 0.00 0.00 0.00 100 1014.8
20260905102523 62 110 3.0 6.0 0.00 0.00 0.00 100 1014.8
20260905102022 62 92 3.0 5.0 0.00 0.00 0.00 100 1014.9
20260905101526 62 92 2.0 4.0 0.00 0.00 0.00 100 1014.9
20260905101023 62 107 2.0 4.0 0.00 0.00 0.00 100 1014.8
20260905100522 62 95 1.0 4.0 0.00 0.00 0.00 100 1015.0
20260905100021 62 81 1.0 4.0 0.00 0.00 0.00 100 1015.0
20260905095521 62 106 2.0 4.0 0.00 0.00 0.00 100 1015.2
20260905095022 62 107 0.0 5.0 0.00 0.00 0.00 100 1014.9
20260905094522 62 111 3.0 8.0 0.00 0.00 0.00 100 1014.6
20260905094020 62 98 4.0 8.0 0.00 0.00 0.00 100 1014.4
20260905093519 62 119 2.0 5.0 0.00 0.00 0.00 100 1014.3
20260905093019 62 88 1.0 6.0 0.00 0.00 0.00 100 1014.2
20260905092518 62 85 3.0 7.0 0.00 0.00 0.00 100 1014.1
20260905092018 62 113 3.0 7.0 0.00 0.00 0.00 100 1014.1
20260905091518 62 88 2.0 9.0 0.00 0.00 0.00 100 1014.1
20260905091019 62 94 4.0 9.0 0.00 0.00 0.00 100 1014.2
20260905090518 62 105 4.0 8.0 0.00 0.00 0.00 100 1014.2
20260905090016 62 85 3.0 8.0 0.00 0.00 0.00 100 1014.2
20260905085515 62 68 4.0 6.0 0.00 0.00 0.00 100 1014.4
20260905085014 62 81 3.0 6.0 0.00 0.00 0.00 100 1014.6
20260905084513 62 90 3.0 6.0 0.00 0.00 0.00 100 1014.7
20260905084014 62 56 3.0 6.0 0.00 0.00 0.00 100 1014.8
20260905083513 62 94 4.0 8.0 0.00 0.00 0.00 100 1014.9
20260905083018 62 105 4.0 8.0 0.00 0.00 0.00 100 1014.9
20260905082513 62 93 3.0 6.0 0.00 0.00 0.00 100 1014.9
20260905082013 62 82 2.0 4.0 0.00 0.00 0.00 100 1015.0
20260905081512 62 115 2.0 5.0 0.00 0.00 0.00 100 1014.9
20260905081011 62 79 2.0 6.0 0.00 0.00 0.00 100 1014.8
20260905080511 62 48 3.0 8.0 0.00 0.00 0.00 100 1014.7
20260905080012 62 82 4.0 10.0 0.00 0.00 0.00 100 1014.7
20260905075510 62 51 6.0 11.0 0.00 0.00 0.00 100 1014.8
20260905075010 62 58 4.0 6.0 0.00 0.00 0.00 100 1014.8
20260905074516 62 102 2.0 6.0 0.00 0.00 0.00 100 1014.9
20260905074010 62 90 3.0 8.0 0.00 0.00 0.00 100 1014.9
20260905073509 62 107 4.0 8.0 0.00 0.00 0.00 100 1014.9
20260905073009 62 129 4.0 6.0 0.00 0.00 0.00 99 1014.9
20260905072509 62 97 4.0 6.0 0.00 0.00 0.00 99 1014.9
20260905072008 62 86 3.0 7.0 0.00 0.00 0.00 99 1014.8
20260905071516 62 98 2.0 7.0 0.00 0.00 0.00 99 1014.7
20260905071007 62 79 4.0 8.0 0.00 0.00 0.00 99 1014.7
20260905070507 62 68 4.0 8.0 0.00 0.00 0.00 99 1014.7
20260905070008 62 77 3.0 6.0 0.00 0.00 0.00 99 1014.7
20260905065510 63 82 4.0 7.0 0.00 0.00 0.00 99 1014.6
20260905065108 63 54 4.0 7.0 0.00 0.00 0.00 99 1014.7
20260905064507 62 77 3.0 8.0 0.00 0.00 0.00 99 1014.8
20260905064009 62 72 4.0 8.0 0.00 0.00 0.00 99 1015.0
20260905063505 62 75 4.0 7.0 0.00 0.00 0.00 99 1014.9
20260905063005 62 60 3.0 6.0 0.00 0.00 0.00 99 1014.9
20260905062508 62 72 4.0 7.0 0.00 0.00 0.00 99 1014.8
20260905062006 62 51 4.0 8.0 0.00 0.00 0.00 99 1014.7
20260905061506 62 70 5.0 10.0 0.00 0.00 0.00 99 1014.7
20260905061003 62 58 3.0 10.0 0.00 0.00 0.00 99 1014.6
20260905060503 62 70 5.0 11.0 0.00 0.00 0.00 99 1014.6
20260905060003 62 51 8.0 11.0 0.00 0.00 0.00 98 1014.6
20260905055501 62 63 5.0 10.0 0.00 0.00 0.00 98 1014.6
20260905055001 62 64 6.0 11.0 0.00 0.00 0.00 98 1014.7
20260905054501 62 72 4.0 7.0 0.00 0.00 0.00 98 1014.7
20260905054104 62 84 3.0 6.0 0.00 0.00 0.00 97 1014.8
20260905053559 63 61 3.0 6.0 0.00 0.00 0.00 97 1014.8
20260905053100 63 65 2.0 6.0 0.00 0.00 0.00 97 1014.8
20260905052558 63 68 2.0 4.0 0.00 0.00 0.00 97 1014.9
20260905052057 63 85 2.0 5.0 0.00 0.00 0.00 97 1014.9
20260905051556 63 115 2.0 6.0 0.00 0.00 0.00 97 1014.9
20260905051055 63 86 1.0 6.0 0.00 0.00 0.00 96 1014.6
20260905050555 64 71 1.0 6.0 0.00 0.00 0.00 96 1014.7
20260905050053 64 97 2.0 6.0 0.00 0.00 0.00 96 1014.8
20260905045553 64 91 3.0 7.0 0.00 0.00 0.00 96 1014.7
20260905045052 64 41 3.0 7.0 0.00 0.00 0.00 96 1014.6
20260905044552 64 86 4.0 7.0 0.00 0.00 0.00 96 1014.6
20260905044050 64 37 3.0 8.0 0.00 0.00 0.00 96 1014.6
20260905043549 64 101 4.0 8.0 0.00 0.00 0.00 96 1014.5
20260905043048 64 134 2.0 7.0 0.00 0.00 0.00 96 1014.4
20260905042551 65 63 2.0 6.0 0.00 0.00 0.00 95 1014.3
20260905042047 65 77 2.0 6.0 0.00 0.00 0.00 95 1014.3
20260905041547 65 81 3.0 6.0 0.00 0.00 0.00 95 1014.2
20260905041045 65 172 3.0 7.0 0.00 0.00 0.00 95 1014.2
20260905040545 65 71 5.0 8.0 0.00 0.00 0.00 94 1014.3
20260905040051 66 110 6.0 9.0 0.00 0.00 0.00 94 1014.3
20260905035543 66 77 6.0 9.0 0.00 0.00 0.00 94 1014.3
20260905035042 66 120 4.0 9.0 0.00 0.00 0.00 94 1014.4
20260905034541 66 79 2.0 6.0 0.00 0.00 0.00 93 1014.2
20260905034041 66 88 3.0 7.0 0.00 0.00 0.00 93 1014.2
20260905033539 67 89 5.0 10.0 0.00 0.00 0.00 92 1014.2
20260905033039 67 68 5.0 10.0 0.00 0.00 0.00 92 1014.1
20260905032539 67 73 6.0 9.0 0.00 0.00 0.00 92 1014.1
20260905032038 67 91 7.0 9.0 0.00 0.00 0.00 91 1014.1
20260905031538 68 111 6.0 11.0 0.00 0.00 0.00 91 1014.1
20260905031037 68 75 6.0 11.0 0.00 0.00 0.00 91 1013.9
20260905030538 69 70 7.0 11.0 0.00 0.00 0.00 91 1013.8
20260905030044 69 69 6.0 9.0 0.00 0.00 0.00 91 1013.9
20260905025537 69 61 6.0 9.0 0.00 0.00 0.00 91 1013.9
20260905025036 70 68 3.0 8.0 0.00 0.00 0.00 90 1014.0
20260905024536 70 95 4.0 8.0 0.00 0.00 0.00 90 1013.9
20260905024034 70 60 4.0 10.0 0.00 0.00 0.00 90 1013.8
20260905023533 71 48 6.0 10.0 0.00 0.00 0.00 90 1013.6
20260905023033 71 96 5.0 7.0 0.00 0.00 0.00 90 1013.5
20260905022533 71 109 4.0 7.0 0.00 0.00 0.00 89 1013.5
20260905022032 71 54 4.0 8.0 0.00 0.00 0.00 89 1013.5
20260905021532 72 77 5.0 8.0 0.00 0.00 0.00 89 1013.4